Weather History for MMMY - November, 2012

Change the Weather History Date:

Thursday, November 15, 2012

  Actual Average Record
Temperature  
Mean Temperature 54 °F -  
Max Temperature 57 °F 73 °F 89 °F (2005)
Min Temperature 51 °F 55 °F 39 °F (2014)
Degree Days  
Heating Degree Days 11    
Growing Degree Days 4 (Base 50)    
Moisture  
Dew Point 54 °F    
Average Humidity 94    
Maximum Humidity 100    
Minimum Humidity 88    
Precipitation  
Precipitation 0.95 in - - ()
Sea Level Pressure  
Sea Level Pressure 30.24 in    
Wind  
Wind Speed 2 mph ()    
Max Wind Speed 7 mph    
Max Gust Speed -    
Visibility 2.1 miles    
Events Fog    
Averages and records for this station are not official NWS values.
T = Trace of Precipitation, MM = Missing Value Source: Averaged Metar Reports

Daily Weather History Graph

Daily Weather History Graph

Search for Another Location

Airport or City:

Trip Planner

Search our weather history database for the weather conditions in past years. The results will help you decide how hot, cold, wet, or windy it might be!

Date:

Astronomy

Nov. 15, 2012 Rise Set
Actual Time 6:58 AM CST 5:51 PM CST
Civil Twilight 6:34 AM CST 6:15 PM CST
Nautical Twilight 6:06 AM CST 6:43 PM CST
Astronomical Twilight 5:39 AM CST 7:10 PM CST
Moon 8:49 AM CST (11/15) 7:50 PM CST (11/15)
Length of Visible Light 11h 41m
Length of Day
10h 52m
Waxing Crescent, 5% of the Moon is Illuminated
Nov 15
Waxing Crescent
Nov 20
First Quarter
Nov 28
Full
Dec 6
Last Quarter
Dec 13
New

Hourly Weather History & Observations

Time (CST) Temp. Dew Point Humidity Pressure Visibility Wind Dir Wind Speed Gust Speed Precip Events Conditions
12:40 AM 53.6 °F 50.0 °F 88% 30.27 in 3.0 mi SSE 6.9 mph - N/A   Overcast
1:40 AM 53.6 °F 50.0 °F 88% 30.25 in 3.0 mi South 5.8 mph - N/A   Overcast
2:42 AM 51.8 °F 50.0 °F 94% 30.32 in 5.5 mi Calm Calm - N/A   Light Drizzle
3:40 AM 51.8 °F 50.0 °F 94% 30.23 in 1.0 mi Calm Calm - N/A   Light Drizzle
4:45 AM 51.8 °F 50.0 °F 94% 30.22 in 1.0 mi Calm Calm - N/A   Light Drizzle
5:40 AM 51.8 °F 50.0 °F 94% 30.30 in 5.5 mi Calm Calm - N/A   Light Drizzle
6:15 AM 51.8 °F 50.0 °F 94% 30.22 in 5.5 mi Calm Calm - N/A   Light Drizzle
6:42 AM 51.8 °F 50.0 °F 94% 30.23 in - Calm Calm - N/A   Light Drizzle
7:46 AM 51.8 °F 51.8 °F 100% 30.24 in 1.0 mi Calm Calm - N/A   Light Drizzle
8:50 AM 53.6 °F 51.8 °F 94% 30.33 in 1.0 mi Calm Calm - N/A   Light Drizzle
9:48 AM 53.6 °F 53.6 °F 100% 30.25 in 1.0 mi Calm Calm - N/A   Light Drizzle
10:50 AM 55.4 °F 53.6 °F 94% 30.25 in 2.0 mi NE 3.5 mph - N/A   Overcast
11:41 AM 57.2 °F 53.6 °F 88% 30.39 in 2.0 mi Calm Calm - N/A   Overcast
12:40 PM 57.2 °F 55.4 °F 94% 30.21 in 3.0 mi Calm Calm - N/A   Mostly Cloudy
1:40 PM 57.2 °F 55.4 °F 94% 30.18 in 4.0 mi Calm Calm - N/A   Overcast
2:45 PM 57.2 °F 55.4 °F 94% 30.34 in 3.0 mi Calm Calm - N/A   Light Drizzle
3:45 PM 57.2 °F 55.4 °F 94% 30.15 in 2.0 mi SE 3.5 mph - N/A   Light Drizzle
4:04 PM 57.2 °F 55.4 °F 94% 30.16 in 2.0 mi SE 3.5 mph - N/A   Light Drizzle
4:20 PM 57.2 °F 55.4 °F 94% 30.16 in 2.0 mi Calm Calm - N/A   Light Drizzle
4:45 PM 57.2 °F 55.4 °F 94% 30.16 in 2.0 mi ESE 3.5 mph - N/A   Light Drizzle
5:45 PM 57.2 °F 55.4 °F 94% 30.22 in 2.0 mi SE 3.5 mph - N/A   Light Drizzle
6:40 PM 57.2 °F 55.4 °F 94% 30.20 in 2.0 mi SE 4.6 mph - N/A   Overcast
7:43 PM 57.2 °F 55.4 °F 94% 30.23 in 1.0 mi Calm Calm - N/A   Overcast
8:02 PM 57.2 °F 55.4 °F 94% 30.23 in 0.5 mi East 4.6 mph - N/A Fog Fog
8:29 PM 57.2 °F 55.4 °F 94% 30.23 in 1.0 mi Calm Calm - N/A   Overcast
8:43 PM 57.2 °F 55.4 °F 94% 30.25 in 1.5 mi Calm Calm - N/A   Overcast
9:07 PM 57.2 °F 55.4 °F 94% 30.23 in 0.5 mi Calm Calm - N/A Fog Fog
9:44 PM 57.2 °F 55.4 °F 94% 30.24 in 0.5 mi Calm Calm - N/A Fog Light Drizzle
10:43 PM 57.2 °F 55.4 °F 94% 30.24 in 0.5 mi Calm Calm - N/A Fog Light Drizzle
11:02 PM 57.2 °F 55.4 °F 94% 30.23 in 1.0 mi Calm Calm - N/A   Light Drizzle
11:41 PM 57.2 °F 55.4 °F 94% 30.25 in 1.5 mi Calm Calm - N/A   Light Drizzle